Terminal Aerodrome Forecast
Issued by NWS Springfield, MO

Home | Current Version | Previous Version | Text Only | Print | Product List | Glossary On
Versions: 1 2 3 4 5 6 7 8 9 10 11 12 13
000
FTUS43 KSGF 182300
TAFSGF
TAF
KSGF 182320Z 1900/1924 VRB05KT P6SM FEW200
     FM190900 15007KT P6SM SCT200
     FM191700 19008KT P6SM SCT200=

USA.gov is the U.S. government's official web portal to all federal, state and local government web resources and services.